Torna al catalogo

STARLINK-3362

AttivoComunicazioniVLEO
NORAD 51108·PAYLOAD·🇺🇸 United States

Lanciato Jan 19, 2022 da Cape Canaveral Space Force Station

Loading…

Prossimi Passaggi (prossime 24 ore)

TLE

AggiornatoSource: CelesTrak SupGP

Epoca: Sep 14, 2026, 21:51 UTC

1 51108C 22005E   26257.91090278 -.00022142  00000+0 -63362-3 0  2574
2 51108  53.1575 151.8337 0001238  90.4266 120.2855 15.35404136    18

Traccia STARLINK-3362 in tempo reale con AllMySat

Download on the App Store